User: anonymous   Login
Location: Unspecified
(0.0000°N, 0.0000°E)
Time: 02:56:33
(UTC+00:00)
Language:

STARLINK-32580 - Orbit

View from above orbital plane
View from above orbital plane
View from above satellite
View from above satellite

Ground track
Ground track

The orbit is defined by the following mean orbital elements,

1 62075U          26145.53132324 +.00000000 +00000-0 +35207-3 0 00004
2 62075  53.1575 184.3700 0000956  86.1583 273.9527 15.30208870    01
Epoch (UTC): 25 May 2026 12:45:06
Eccentricity: 0.0000956
inclination: 53.1575°
perigee height: 475 km
apogee height: 476 km
right ascension of ascending node: 184.3700°
argument of perigee: 86.1583°
revolutions per day: 15.30208870
mean anomaly at epoch: 273.9527°

The dashed part of the orbit path shows where the satellite is in the earth's shadow,  

DLR